ORBCOMM FM 40

Satellite information

Favourite Embed

Satellite Type and Status

PAYLOADIN ORBIT

Key statistics

Satellite ORBCOMM FM 40 at a glance.

Uptime

6340

Days in orbit

Revolutions

≈ 14.8

Per day

Orbit

LEO

Low Earth Orbit

Inclination

48.4

Latest

Satellite identification and parameters

Extended collection of information and parameters for ORBCOMM FM 40.

Object identification

Identified? True

Debris? False

Object name: ORBCOMM FM 40

International designator: 2008-031F

Object number (NORAD): 33065

Object ID (CCSDS): 33065

Country: ORBITAL TELECOMMUNICATIONS SATELLITE (GLOBALSTAR) (ORB)

Current information (Y/N): Y

RCS size: LARGE

Orbital parameters

Period: 97.118 minutes

Inclination: 48.4413 deg

SMA: 6998.833 km

Apoapsis: 625.591 km

Periapsis: 615.806 km

RAAN: 59.2314 deg

Eccentricy: 0.00069908

Argument of periapsis: 239.6059 deg

Mean anomaly: 264.1848 deg

Mean motion: 14.82737497 rev/day

Mean motion (dot): 0.0000367 rev/day2

B* drag term: 0.0004757778 1/REarth

Two-line elements (TLE)

Creation date: Oct. 27, 2025, 2:46 a.m.

Reference frame: TEME

Reference center: EARTH

Epoch: Oct. 26, 2025, 8:30 p.m. UTC

TLE line 0: 0 ORBCOMM FM 40

TLE line 1: 1 33065U 08031F 25299.85449580 .00003670 00000-0 47578-3 0 9999

TLE line 2: 2 33065 48.4413 59.2314 0006991 239.6059 264.1848 14.82737497933691

Live tracking on map

Real-time ground track for satellite ORBCOMM FM 40.

In-orbit conjunctions

A list of the most updated potential collisions computed for object ORBCOMM FM 40.

Target Orbit TCA Probability of collision Miss distance Type
CZ-6A DEB SSO 2025-10-19 11:07:51 0.000558383 604.0 (m) DEBRIS
FENGYUN 1C DEB SSO 2025-03-10 23:42:25 0.0001474765 815.0 (m) DEBRIS
FENGYUN 1C DEB SSO 2025-01-28 09:42:18 0.0002584036 364.0 (m) DEBRIS
COSMOS 1823 DEB LEO 2024-09-11 23:02:07 0.00015773 168.0 (m) DEBRIS
BREEZE-M DEB MEO 2024-08-08 04:22:49 0.0002048401 421.0 (m) DEBRIS

Associated space launch

LEO communications satellites

ORBCOMM FM 40 was lifted into orbit during the mission ‘Kosmos-3M | Orbcomm FM 37 to 41 & CDS 3’, on board a Kosmos-3M space rocket.

The launch took place on June 19, 2008, 6:36 a.m. from 107.

For more information about the launch, click the button.

Launch to space Kosmos-3M | Orbcomm FM 37 to 41 & CDS 3
Kosmos-3M | Orbcomm FM 37 to 41 & CDS 3

Agency: N/A

Status: Launch Successful

Launch date: June 19, 2008, 6:36 a.m. UTC

Rocket: Kosmos-3M

Launch pad: 107

Location: Kapustin Yar, Russian Federation

...

Latest news about this satellite

There are no fresh news available about this satellite. Check back as we update our databases every day.


Newsletter sign-up

Weekly statistics, charts and insights to help you stay on top of the space industry.